Regional Weather Roundup
Issued by NWS Northern Indiana

Home | Current Version | Previous Version | Graphics & Text | Print | Product List | Glossary On
Versions: 1 2 3 4 5 6 7 8 9 10 11 12 13 14 15 16 17 18 19 20 21 22 23 24 25 26 27 28 29 30 31 32 33 34 35 36 37 38 39 40 41 42 43 44 45 46 47 48 49 50
000
ASUS43 KIWX 271710
RWRIWX

KIWX WEATHER ROUNDUP
NATIONAL WEATHER SERVICE NORTHERN INDIANA
1200 PM EST FRI FEB 27 2015

NOTE: "FAIR" INDICATES FEW OR NO CLOUDS BELOW 12,000 FEET WITH NO
SIGNIFICANT WEATHER AND/OR OBSTRUCTIONS TO VISIBILITY.

* THESE STATIONS ARE NOT UNDER NWS QUALITY CONTROL. THEY ALSO MAY NOT
  REPORT WEATHER SUCH AS PRECIPITATION OR FOG.

INZ001>027-271800-
NORTHERN INDIANA

CITY           SKY/WX    TMP DP  RH WIND       PRES   REMARKS
GARY*          SUNNY     14  -9  34 W14       30.62R WCI  -1
VALPARAISO     SUNNY     13  -4  46 W7        30.60R WCI   3
MICHIGAN CITY* SUNNY     16  -6  38 W9        30.60R WCI   4
LAPORTE*       SUNNY     16   2  52 W6        30.59R WCI   8
KNOX*            N/A     10 -11  37 SW3       30.60R
SOUTH BEND     PTSUNNY   15   2  56 SW10      30.59R WCI   2
ELKHART*       SUNNY     16  -6  38 SW7       30.59R WCI   6
GOSHEN         SUNNY     12  -4  48 W6        30.58R WCI   3
MONTICELLO*    SUNNY      7  -1  69 W5        30.62R WCI  -2
LOGANSPORT*    SUNNY      9   1  72 SW7       30.62R WCI  -3
ROCHESTER*     SUNNY     18   5  57 SW5       30.61R WCI  11
WARSAW*        SUNNY     16   0  48 W5        30.58R WCI   9
ANGOLA*        SUNNY     14  -8  37 NW5       30.55R WCI   6
FORT WAYNE     MOSUNNY   15  -3  44 W6        30.59R WCI   6
HUNTINGTON*    MOSUNNY   16   0  49 N3        30.59R
PERU/GRISSOM   SUNNY      8   1  72 W8        30.59R WCI  -4
MARION*        SUNNY     13   4  68 W9        30.60R WCI   1

$$
INZ028>050-271800-
CENTRAL INDIANA

CITY           SKY/WX    TMP DP  RH WIND       PRES   REMARKS
LAFAYETTE      SUNNY     13  -2  51 NW8       30.63R WCI   2
KOKOMO*        SUNNY     12   3  67 NW8       30.60R WCI   1
MUNCIE*        SUNNY     13   5  70 W8        30.59R WCI   2
INDIANAPOLIS   MOSUNNY   15  -1  49 W8        30.60R WCI   4

$$
MIZ043>046-050>051-056>058-064>065-071>073-077>080-271800-
SOUTHWEST LOWER MICHIGAN

CITY           SKY/WX    TMP DP  RH WIND       PRES   REMARKS
BATTLE CREEK   SUNNY     12  -7  42 S9        30.55R WCI   0
BENTON HARBOR  MOSUNNY   14   2  58 S6        30.58R WCI   5
COLDWATER*     SUNNY     11 -10  39 SW5       30.55R WCI   2
HILLSDALE*     SUNNY     13  -8  38 CALM      30.51R
HOLLAND        MOSUNNY   17   5  59 SW12      30.56R WCI   4
GRAND RAPIDS   MOSUNNY   11  -5  48 SW9       30.55R WCI  -2
KALAMAZOO      SUNNY     13  -4  46 SW10      30.56R WCI   0
STURGIS*       SUNNY     10  -6  48 S5        30.56R WCI   2
THREE RIVERS*  FAIR      14  -6  40 S8        30.57R WCI   3

$$
OHZ001>008-015>018-024>025-271800-
NORTHWEST OHIO

CITY           SKY/WX    TMP DP  RH WIND       PRES   REMARKS
WAUSEON*       FAIR       9  -4  56 W7        30.57R WCI  -3
DEFIANCE       SUNNY      9  -3  58 SW6       30.60R WCI  -1
FINDLAY        FLURRIES  12   2  64 SW6       30.56R WCI   3
TOLEDO EXPRESS SUNNY     12  -2  53 W8        30.58R WCI   0
TOLEDO METCALF SUNNY     10  -1  61 SW9       30.59R WCI  -3
LIMA           SUNNY     13   3  64 S7        30.56R WCI   3

$$
AND FOR LAKE MICHIGAN COASTAL AND OPEN LAKE BUOY OBSERVATIONS

STATION/POSITION TEMP    WIND        PRES    VSBY  WAVE
                 AIR SEA DIR/SP/G                  HT/PER
                 (F)     (DEG/KT/KT) (MB)    (MI)  (FT/S)
CALUMET HARBOR    14     280/  7/ 10 1035.0R
MICHIGAN CITY     11     220/ 11/ 14   N/A
SAINT JOSEPH      14     180/ 13/ 14 1035.6R

$$
&&



USA.gov is the U.S. government's official web portal to all federal, state and local government web resources and services.